Tracking 27111 objects as of 29-Mar-2023
HD Live streaming from Space Station
objects crossing your sky now

SPACEBEE-167

Track SPACEBEE-167 now!
10-day predictions


NORAD ID: 55087
Int'l Code: 2023-001CG
Perigee: 513.7 km
Apogee: 532.9 km
Inclination: 97.5 °
Period: 95.0 minutes
Semi major axis: 6894 km
RCS: Unknown
Launch date: January 3, 2023
Source: United States (US)
Launch site: AIR FORCE EASTERN TEST RANGE (AFETR)
Your satellite tracking list
Your tracking list is empty




NASA's NSSDC Master Catalog

Two Line Element Set (TLE):
1 55087U 23001CG  23087.15781889  .00018311  00000-0  93727-3 0  9993
2 55087  97.4872 148.0844 0013944 284.1330  75.8354 15.16586424 12800
Source of the keplerian elements: AFSPC